SCP
-0 -0 -0 0 0 0 0 0 0 0 0 0 0 0 0 0 0 0 0 0 0 0 0 0 0 0 0 0 0 0 0 0 0 0 0 0 0 0 0 0 0 0 0 0 0 0 0
0 0 0 0 0 0 0 0 0 0 0 0 0 0 0 0 0 0 0 0 0 0 0 0 0 0 0 0 0 0 0 0 0 0 0 0 0 0 0 0 0 0 0 0 0 0 0
0 0 0 0 0 0 0 0 0 0 0 0 0 0 0 0 0 0 0 0 0 0 0 0 0 0 0 0 0 0 0 0 0 0 0 0 0 0 0 0 0 0 0 0 0 0 0
0 0 0 0 0 0 0 0 0 0 0 0 0 0 0 0 0 0 0 0 0 0 0 0 0 0 0 -0 0 0 0 0 0 0 0 0 0 0 0 0 0 0 0 0 0 0 0
0 0 0 0 0 0 0 0 0 0 0 0 0 0 0 0 0 0 0 0 0 0 0 -0 0 0 -0 0 0 0 0 0 0 0 0 0 0 0 0 0 0 0 0 0 0 0 0
0 0 0 0 0 0 0 0 0 0 0 0 0 0 0 0 0 0 0 0 0 0 0 0 0 0 0 0 0 0 0 0 0 0 0 0 0 0 0 0 0 0 0 0 0 0 0
0 0 0 0 0 0 0 0 0 0 0 0 0 0 0 0 0 0 0 0 0 0 0 0 0 0 0 0 0 0 0 0 0 0 0 0 0 0 0 0 0 0 0 0 0 0 0
0 0 0 0 0 0 0 0 0 0 0 0 0 0 0 0 0 0 0 0 0 0 0 0 0 0 0 0 0 0 0 0 0 0 0 0 0 0 0 0 0 0 0 0 0 0 0
0 0 0 0 0 0 0 0 0 0 0 0 0 0 0 0 0 0 0 0 0 0 -0 0 0 0 0 0 0 0 0 0 0 0 0 0 0 0 0 0 0 0 0 0 0 0 0
0 0 0 0 0 0 0 0 0 0 0 0 0 0 0 0 0 0 0 0 0 0 -0 -0 0 0 0 0 0 0 0 0 0 0 0 0 0 0 0 0 0 0 0 0 0 0 0
0 -0 -0 0 0 0 0 0 0 0 -0 0 0 0 0 0 0 0 0 0 0 0 0 0 0 0 0 0 0 0 0 0 0 0 0 0 0 0 0 0 0 0 0 0 0 0 0
0 0 0 0 0 0 0 0 -0 -0 0 0 0 0 0 0 0 0 0 0 0 0 0 0 0 0 0 0 0 0 0 0 0 0 0 0 0 0 0 0 0 0 0 0 0 0 0
0 0 0 0 0 0 0 0 -0 0 0 0 0 0 0 0 0 0 0 0 0 0 0 0 0 0 0 0 -0 0 0 0 0 0 0 0 0 0 0 0 0 0 0 0 0 0 0
0 0 0 0 0 0 0 0 0 0 0 0 0 0 0 0 0 0 0 0 0 0 0 0 0 0 0 -0 -0 0 0 0 0 0 0 0 0 0 0 0 0 0 0 0 0 0 0
0 0 0 0 0 0 0 0 0 0 0 0 0 0 0 0 0 0 0 0 0 0 0 0 0 0 0 0 -0 -0 0 0 0 0 0 0 0 0 0 0 0 0 0 0 0 0 -0
0 0 0 0 0 0 0 0 0 0 0 0 0 0 0 0 0 0 0 0 0 0 0 0 0 0 0 0 -0 -0 0 0 0 0 0 0 0 0 0 0 0 0 0 0 0 0 -0
0 0 0 0 0 0 0 0 0 0 0 0 0 0 0 0 0 -0 0 0 0 0 0 0 -0 0 0 0 0 -0 0 0 0 0 0 0 0 0 0 0 0 0 0 0 0 0 0
0 0 0 0 0 0 0 0 0 0 0 0 0 0 0 0 0 -0 -0 -0 -0 -0 0 -0 -0 0 -0 0 -0 -0 -0 -0 0 0 0 0 0 0 0 0 0 0 0 0 0 0 0
0 0 0 0 0 0 0 0 0 0 0 0 0 0 0 0 0 0 -0 -0 0 -0 -0 -0 -0 -0 -0 -0 -0 -0 -0 -0 -0 0 0 0 0 0 0 0 0 0 0 0 0 0 0
0 0 0 0 0 0 0 0 0 0 0 0 0 0 0 0 0 0 0 0 -0 0 -0 -0 0 -0 -0 -0 -0 -0 -0 -0 -0 0 0 0 0 0 0 0 0 0 0 0 0 0 0
0 0 0 0 0 0 0 0 0 0 0 0 0 0 0 0 0 0 0 0 -0 -0 0 -0 -0 -0 -0 -0 0 0 0 -0 -0 0 0 0 0 0 0 0 0 0 0 0 0 0 0
0 0 0 0 0 0 0 0 0 0 0 0 0 0 0 0 0 0 0 0 0 -0 -0 0 -0 -0 -0 -0 -0 0 -0 -0 -0 0 0 0 0 0 0 0 0 0 0 0 0 0 0
0 0 0 0 0 0 0 0 0 0 0 0 0 0 0 0 0 0 0 0 0 -0 0 0 0 -0 -0 -0 0 0 0 -0 -0 -0 0 0 0 0 0 0 0 0 0 0 0 0 0
0 0 0 0 0 0 0 0 0 0 0 0 0 0 0 0 0 0 0 0 0 0 0 -0 -0 -0 -0 -0 -0 0 0 -0 -0 -0 -0 0 0 0 0 0 0 0 0 0 0 0 0
0 0 0 0 0 0 0 0 0 0 0 0 0 0 0 0 0 0 0 0 0 0 0 -0 -0 0 -0 0 -0 0 -0 -0 -0 -0 0 0 0 0 0 0 0 0 0 0 0 0 0
0 0 0 0 0 0 0 0 0 0 0 0 0 0 0 0 0 0 0 0 0 0 0 0 0 0 -0 -0 0 0 0 -0 -0 -0 -0 0 0 0 0 0 0 0 0 0 0 0 0
0 0 0 0 0 0 0 0 0 0 0 0 0 0 0 0 0 0 0 0 0 0 0 0 0 -0 -0 -0 0 0 0 0 0 0 0 0 0 0 0 0 0 0 0 0 0 0 0
0 0 0 0 0 0 0 0 0 0 0 0 0 0 0 0 0 0 0 0 0 0 0 0 0 0 -0 -0 0 0 0 0 0 0 0 0 0 0 0 0 0 0 0 0 0 0 0
0 0 0 0 0 0 0 0 0 0 0 0 0 0 0 0 0 0 0 0 0 0 0 0 0 0 0 -0 -0 0 0 0 0 -0 0 0 0 0 0 0 0 0 0 0 0 0 0
Wind_Speed_500mb
29 29 28 30 30 30 31 32 35 36 36 36 36 36 37 38 38 37 34 34 34 37 39 38 39 38 37 25 37 19 25 14 9 3 45 46 51 49 31 34 45 45 46 52 59 56 52
29 29 31 34 35 36 36 33 35 37 39 39 39 40 40 39 39 40 40 38 38 37 37 41 39 30 28 31 43 56 62 39 38 27 17 44 26 40 27 26 43 27 59 58 47 41 56
34 35 35 37 38 39 41 39 38 42 43 42 41 43 44 44 45 46 44 42 43 39 38 41 44 37 39 68 39 28 36 65 62 43 37 30 53 22 15 18 41 36 31 25 32 35 28
35 34 35 35 37 38 36 37 38 39 40 41 42 45 48 48 47 47 48 47 47 43 43 42 38 25 29 37 41 52 58 55 40 45 41 38 33 49 26 12 2 21 21 36 24 40 29
39 40 41 40 40 41 38 36 35 35 37 38 40 43 47 49 50 51 50 50 49 40 34 33 25 19 29 21 36 30 40 59 60 51 36 19 33 33 24 30 19 23 29 30 26 23 10
39 39 41 41 40 40 42 42 43 44 43 44 44 46 44 43 45 50 55 50 29 17 14 10 8 12 27 13 23 33 27 23 44 31 38 29 25 24 29 34 43 30 30 29 32 21 33
39 39 40 42 42 43 43 44 43 42 45 44 45 48 48 47 45 47 51 34 10 4 7 16 20 28 51 53 48 43 7 19 28 45 33 52 25 51 63 44 35 37 40 51 44 30 30
42 43 45 46 47 47 46 46 45 44 45 47 49 48 47 45 45 46 19 10 4 11 27 44 63 62 72 62 35 48 39 18 25 42 45 26 60 53 39 43 46 45 46 42 28 24 20
43 43 44 46 48 48 49 49 49 49 49 52 50 45 46 50 47 20 25 7 6 21 13 43 30 27 27 19 32 66 26 23 26 40 61 59 70 36 44 45 47 51 50 46 38 30 27
44 45 42 44 45 46 50 53 53 51 51 49 46 45 49 49 31 19 9 4 13 23 9 13 7 6 9 9 15 41 46 39 27 46 49 46 49 50 52 56 44 50 48 39 37 22 27
44 47 46 44 46 51 53 53 52 51 50 48 47 46 46 37 40 20 12 10 12 4 11 4 6 2 28 9 28 14 29 48 38 25 40 41 48 40 51 56 53 31 22 30 33 34 33
44 47 47 48 49 51 54 54 53 53 50 50 51 47 43 36 30 17 7 14 2 7 15 5 3 17 33 13 21 24 13 48 47 44 44 42 31 54 50 40 41 23 14 15 12 14 25
43 46 48 50 52 54 55 54 55 52 50 50 53 51 38 24 20 18 10 0 6 11 12 1 10 25 31 22 16 19 29 23 32 35 39 37 37 16 33 36 34 40 25 11 12 15 19
45 47 48 50 53 56 56 56 58 55 54 56 60 46 8 21 20 10 5 4 12 9 16 24 24 33 30 20 12 22 36 23 39 37 23 31 29 42 41 39 28 49 40 16 14 10 20
46 48 48 50 52 55 55 57 61 60 60 63 64 14 16 23 17 6 7 6 7 8 11 20 30 19 11 15 15 15 17 22 19 48 13 30 30 32 38 30 41 34 36 30 13 5 14
46 48 49 50 51 53 53 54 59 63 63 68 44 6 23 25 12 9 4 6 7 13 21 15 14 14 22 20 18 11 9 22 25 22 22 14 25 27 43 44 47 38 34 19 18 16 17
47 49 51 51 52 53 54 53 55 60 66 65 29 5 17 26 22 6 5 7 10 24 22 8 12 18 21 23 11 4 8 12 28 30 24 21 15 29 36 47 48 23 33 14 20 15 11
49 50 51 51 51 51 53 53 51 57 65 62 21 4 18 23 4 2 7 17 17 19 21 14 15 18 19 23 14 5 8 5 16 22 16 11 11 17 55 30 40 42 41 39 19 19 20
52 51 51 51 52 51 51 50 48 49 55 57 22 10 14 20 7 12 17 12 11 14 16 11 12 11 25 15 10 7 8 9 7 9 6 14 13 22 17 11 34 49 40 35 9 10 32
56 53 52 52 53 52 50 48 47 43 45 43 14 9 10 10 6 10 13 10 14 20 19 13 21 17 23 13 9 10 13 4 7 9 36 13 8 16 23 27 14 51 47 38 29 17 17
58 56 54 54 54 51 51 51 42 40 38 27 18 5 6 8 9 18 11 12 18 14 11 17 4 9 16 12 21 8 6 2 5 14 26 6 6 12 27 17 8 43 44 47 41 32 16
59 57 57 55 54 52 57 56 42 33 33 14 13 9 9 20 19 18 7 8 18 16 11 20 12 26 27 21 25 28 10 7 5 9 16 9 2 11 21 21 14 13 16 42 50 44 36
59 59 59 56 52 57 58 52 38 26 24 11 15 19 13 12 8 9 5 11 14 27 19 19 26 33 29 26 19 27 32 32 25 10 10 12 11 7 16 8 12 12 4 15 30 40 42
63 61 57 52 57 63 60 50 36 21 17 19 22 24 8 9 12 15 21 29 24 26 20 32 32 15 10 30 49 43 40 33 31 27 19 13 12 4 5 7 29 12 19 23 29 26 26
62 61 55 56 62 67 63 53 34 23 15 21 23 19 9 10 20 25 17 23 32 34 23 21 14 21 32 23 8 9 7 8 16 18 3 17 4 4 5 7 16 7 21 15 9 18 27
61 60 55 54 66 69 64 51 28 18 11 19 19 18 18 16 4 12 31 28 10 12 13 11 28 16 13 5 6 4 5 2 2 5 8 10 19 7 2 5 8 16 32 15 10 9 32
62 61 55 51 66 69 63 51 28 14 12 20 21 22 15 16 25 14 12 13 11 12 8 17 26 9 13 8 6 5 3 7 3 4 5 1 5 11 3 5 6 27 29 31 11 9 35
63 62 59 49 63 69 63 49 32 17 12 18 23 24 22 16 43 27 21 20 26 20 6 20 17 3 7 12 7 8 6 6 4 6 9 4 3 3 4 4 8 38 7 10 10 19 27
62 62 62 53 55 65 61 50 33 23 14 18 23 20 18 25 45 65 50 38 37 42 38 11 11 12 7 6 6 5 3 5 9 3 7 2 7 3 7 6 12 17 6 13 18 23 31
Wind_Direction_500mb
10 6 359 354 348 346 345 344 344 343 340 337 335 332 330 330 328 325 324 325 320 314 313 315 313 302 293 259 232 248 211 186 3 328 210 200 197 205 201 210 213 229 242 234 245 259 260
359 355 352 346 343 341 340 340 340 337 336 335 333 329 327 325 323 321 322 320 313 315 316 315 310 301 276 253 263 245 236 237 261 266 215 200 212 220 243 227 201 237 239 243 244 251 261
1 358 355 350 349 345 343 342 338 335 334 333 333 330 327 326 323 320 318 314 311 313 303 299 297 290 265 253 258 260 240 236 246 252 243 236 221 222 241 241 232 239 255 238 237 235 242
357 353 350 347 345 341 341 339 336 335 335 334 335 333 330 328 326 323 319 315 314 308 298 294 289 270 257 289 273 257 246 242 241 243 246 237 224 235 245 282 198 223 230 243 229 233 245
3 3 2 0 356 356 357 350 346 341 338 336 336 334 330 328 327 327 322 320 318 310 300 295 277 247 270 280 262 279 255 245 242 244 240 217 215 220 216 232 242 215 238 228 243 210 202
14 13 12 7 1 1 358 354 351 349 345 340 341 335 330 326 326 324 323 329 327 318 312 289 211 254 255 268 289 294 287 264 237 217 201 211 203 211 213 205 218 221 226 236 243 229 223
13 9 7 4 1 358 355 352 347 345 343 340 337 333 331 331 329 326 329 343 352 291 293 255 255 248 273 283 286 281 286 294 211 199 191 188 202 219 214 216 238 249 247 246 252 239 238
11 8 5 4 3 359 356 352 347 344 341 339 335 330 328 329 329 327 358 33 48 328 300 279 275 258 265 274 289 272 257 220 192 206 194 182 223 217 218 215 220 228 242 242 251 256 269
10 10 8 7 6 2 358 353 347 342 338 337 335 333 329 324 325 323 329 298 216 319 262 293 258 260 258 248 246 267 218 203 219 211 195 198 224 205 211 208 214 224 233 239 245 266 270
12 11 10 7 2 354 350 348 346 342 339 337 336 331 328 324 322 303 356 181 311 321 289 273 239 238 340 234 242 269 227 212 219 219 207 225 213 196 207 216 208 230 225 251 251 257 263
14 13 9 3 357 353 346 343 344 344 341 339 335 330 325 321 304 301 296 300 289 241 293 99 137 124 333 238 303 318 239 213 230 210 194 212 196 191 201 205 208 235 228 225 237 248 273
10 7 5 3 357 354 351 350 347 345 343 341 339 336 326 321 311 312 290 298 205 210 245 286 61 347 338 357 317 302 259 217 218 241 232 219 206 197 210 199 203 197 209 198 229 253 254
4 1 360 1 1 357 353 351 350 348 344 339 338 335 323 327 316 302 306 199 206 236 338 311 339 331 322 335 348 340 320 197 216 203 220 213 220 203 190 193 195 195 182 213 230 220 247
2 1 1 1 359 356 354 354 353 349 345 337 336 332 338 346 327 311 184 179 225 263 259 321 339 324 305 10 3 343 331 236 212 236 222 210 201 202 191 195 177 192 190 173 207 228 264
0 1 359 358 356 354 352 355 354 351 346 341 341 6 8 348 343 206 190 199 260 252 346 330 326 313 313 333 349 339 343 323 225 217 253 205 228 183 189 189 181 184 205 208 264 267 279
357 357 356 355 353 352 351 352 353 354 351 346 350 77 16 12 343 211 218 267 286 328 334 317 293 262 292 313 321 28 337 26 349 358 352 272 223 205 188 185 205 205 186 186 206 228 245
352 352 351 351 351 351 350 352 353 352 351 351 0 41 3 346 350 69 356 315 292 293 322 298 292 295 288 296 341 53 287 334 12 332 336 270 280 183 172 202 190 179 189 193 191 214 209
351 350 347 347 348 349 348 350 353 352 351 356 1 336 360 0 359 52 340 325 308 294 325 292 275 278 272 314 293 240 218 241 347 325 306 300 286 244 206 195 200 197 191 183 185 190 227
354 352 348 346 346 349 349 348 349 351 353 350 342 300 4 9 39 354 335 309 275 297 325 320 298 331 321 301 295 251 207 213 260 293 321 343 226 216 149 199 204 199 199 191 155 164 200
356 356 351 349 348 349 350 347 346 348 354 352 357 341 351 30 25 336 324 300 311 304 292 309 284 326 341 321 325 266 239 203 252 306 316 292 257 260 200 199 159 198 195 192 198 201 202
353 351 349 349 348 349 351 345 343 345 352 2 4 1 331 315 333 316 310 306 304 327 321 317 282 351 359 311 323 28 332 234 252 333 333 335 226 270 267 279 301 173 197 199 204 218 212
356 352 347 349 346 348 350 348 347 346 344 9 342 334 310 297 299 302 301 305 298 315 306 313 288 324 325 292 285 294 309 7 312 304 322 7 31 345 260 244 252 144 163 204 208 223 235
355 353 350 350 350 348 351 347 346 348 336 341 331 324 287 286 288 281 293 291 291 305 287 255 306 312 305 302 300 286 277 264 258 280 332 343 351 353 212 343 225 238 263 199 209 223 221
355 353 354 355 352 349 349 348 345 348 312 307 319 312 288 290 302 307 293 301 307 314 294 298 298 282 275 308 301 282 262 250 253 249 253 297 330 275 259 256 202 92 45 17 109 50 10
354 353 353 352 349 348 348 352 346 348 309 311 311 311 291 282 291 298 318 323 306 316 299 297 304 306 304 299 277 288 168 180 226 226 77 218 283 249 229 209 116 53 18 349 9 53 19
353 351 350 351 349 348 348 348 342 343 311 303 307 310 282 292 279 304 306 296 301 314 318 298 325 329 345 301 276 289 333 335 28 166 77 322 239 261 266 235 167 1 332 293 180 115 6
353 350 349 347 349 348 349 347 341 343 322 290 302 305 282 278 284 286 293 314 288 290 281 298 336 330 1 0 328 312 1 322 284 324 348 70 102 193 190 88 101 353 356 137 198 22 344
351 350 349 344 349 349 350 347 343 338 318 301 298 295 274 270 288 275 276 260 283 279 284 317 321 26 334 17 348 350 333 4 283 295 328 327 316 135 170 139 129 356 10 67 358 345 341
348 349 348 344 344 348 347 347 341 332 310 288 297 298 294 265 274 299 296 288 275 275 269 271 284 295 358 345 352 308 318 294 313 95 358 35 358 48 13 70 344 343 17 41 4 344 346
Wind_Speed_850mb
29 29 28 30 30 30 31 32 35 36 36 36 36 36 37 38 38 37 34 34 34 37 39 38 39 38 37 25 37 19 25 14 9 3 45 46 51 49 31 34 45 45 46 52 59 56 52
29 29 31 34 35 36 36 33 35 37 39 39 39 40 40 39 39 40 40 38 38 37 37 41 39 30 28 31 43 56 62 39 38 27 17 44 26 40 27 26 43 27 59 58 47 41 56
34 35 35 37 38 39 41 39 38 42 43 42 41 43 44 44 45 46 44 42 43 39 38 41 44 37 39 68 39 28 36 65 62 43 37 30 53 22 15 18 41 36 31 25 32 35 28
35 34 35 35 37 38 36 37 38 39 40 41 42 45 48 48 47 47 48 47 47 43 43 42 38 25 29 37 41 52 58 55 40 45 41 38 33 49 26 12 2 21 21 36 24 40 29
39 40 41 40 40 41 38 36 35 35 37 38 40 43 47 49 50 51 50 50 49 40 34 33 25 19 29 21 36 30 40 59 60 51 36 19 33 33 24 30 19 23 29 30 26 23 10
39 39 41 41 40 40 42 42 43 44 43 44 44 46 44 43 45 50 55 50 29 17 14 10 8 12 27 13 23 33 27 23 44 31 38 29 25 24 29 34 43 30 30 29 32 21 33
39 39 40 42 42 43 43 44 43 42 45 44 45 48 48 47 45 47 51 34 10 4 7 16 20 28 51 53 48 43 7 19 28 45 33 52 25 51 63 44 35 37 40 51 44 30 30
42 43 45 46 47 47 46 46 45 44 45 47 49 48 47 45 45 46 19 10 4 11 27 44 63 62 72 62 35 48 39 18 25 42 45 26 60 53 39 43 46 45 46 42 28 24 20
43 43 44 46 48 48 49 49 49 49 49 52 50 45 46 50 47 20 25 7 6 21 13 43 30 27 27 19 32 66 26 23 26 40 61 59 70 36 44 45 47 51 50 46 38 30 27
44 45 42 44 45 46 50 53 53 51 51 49 46 45 49 49 31 19 9 4 13 23 9 13 7 6 9 9 15 41 46 39 27 46 49 46 49 50 52 56 44 50 48 39 37 22 27
44 47 46 44 46 51 53 53 52 51 50 48 47 46 46 37 40 20 12 10 12 4 11 4 6 2 28 9 28 14 29 48 38 25 40 41 48 40 51 56 53 31 22 30 33 34 33
44 47 47 48 49 51 54 54 53 53 50 50 51 47 43 36 30 17 7 14 2 7 15 5 3 17 33 13 21 24 13 48 47 44 44 42 31 54 50 40 41 23 14 15 12 14 25
43 46 48 50 52 54 55 54 55 52 50 50 53 51 38 24 20 18 10 0 6 11 12 1 10 25 31 22 16 19 29 23 32 35 39 37 37 16 33 36 34 40 25 11 12 15 19
45 47 48 50 53 56 56 56 58 55 54 56 60 46 8 21 20 10 5 4 12 9 16 24 24 33 30 20 12 22 36 23 39 37 23 31 29 42 41 39 28 49 40 16 14 10 20
46 48 48 50 52 55 55 57 61 60 60 63 64 14 16 23 17 6 7 6 7 8 11 20 30 19 11 15 15 15 17 22 19 48 13 30 30 32 38 30 41 34 36 30 13 5 14
46 48 49 50 51 53 53 54 59 63 63 68 44 6 23 25 12 9 4 6 7 13 21 15 14 14 22 20 18 11 9 22 25 22 22 14 25 27 43 44 47 38 34 19 18 16 17
47 49 51 51 52 53 54 53 55 60 66 65 29 5 17 26 22 6 5 7 10 24 22 8 12 18 21 23 11 4 8 12 28 30 24 21 15 29 36 47 48 23 33 14 20 15 11
49 50 51 51 51 51 53 53 51 57 65 62 21 4 18 23 4 2 7 17 17 19 21 14 15 18 19 23 14 5 8 5 16 22 16 11 11 17 55 30 40 42 41 39 19 19 20
52 51 51 51 52 51 51 50 48 49 55 57 22 10 14 20 7 12 17 12 11 14 16 11 12 11 25 15 10 7 8 9 7 9 6 14 13 22 17 11 34 49 40 35 9 10 32
56 53 52 52 53 52 50 48 47 43 45 43 14 9 10 10 6 10 13 10 14 20 19 13 21 17 23 13 9 10 13 4 7 9 36 13 8 16 23 27 14 51 47 38 29 17 17
58 56 54 54 54 51 51 51 42 40 38 27 18 5 6 8 9 18 11 12 18 14 11 17 4 9 16 12 21 8 6 2 5 14 26 6 6 12 27 17 8 43 44 47 41 32 16
59 57 57 55 54 52 57 56 42 33 33 14 13 9 9 20 19 18 7 8 18 16 11 20 12 26 27 21 25 28 10 7 5 9 16 9 2 11 21 21 14 13 16 42 50 44 36
59 59 59 56 52 57 58 52 38 26 24 11 15 19 13 12 8 9 5 11 14 27 19 19 26 33 29 26 19 27 32 32 25 10 10 12 11 7 16 8 12 12 4 15 30 40 42
63 61 57 52 57 63 60 50 36 21 17 19 22 24 8 9 12 15 21 29 24 26 20 32 32 15 10 30 49 43 40 33 31 27 19 13 12 4 5 7 29 12 19 23 29 26 26
62 61 55 56 62 67 63 53 34 23 15 21 23 19 9 10 20 25 17 23 32 34 23 21 14 21 32 23 8 9 7 8 16 18 3 17 4 4 5 7 16 7 21 15 9 18 27
61 60 55 54 66 69 64 51 28 18 11 19 19 18 18 16 4 12 31 28 10 12 13 11 28 16 13 5 6 4 5 2 2 5 8 10 19 7 2 5 8 16 32 15 10 9 32
62 61 55 51 66 69 63 51 28 14 12 20 21 22 15 16 25 14 12 13 11 12 8 17 26 9 13 8 6 5 3 7 3 4 5 1 5 11 3 5 6 27 29 31 11 9 35
63 62 59 49 63 69 63 49 32 17 12 18 23 24 22 16 43 27 21 20 26 20 6 20 17 3 7 12 7 8 6 6 4 6 9 4 3 3 4 4 8 38 7 10 10 19 27
62 62 62 53 55 65 61 50 33 23 14 18 23 20 18 25 45 65 50 38 37 42 38 11 11 12 7 6 6 5 3 5 9 3 7 2 7 3 7 6 12 17 6 13 18 23 31
Wind_Direction_850mb
10 6 359 354 348 346 345 344 344 343 340 337 335 332 330 330 328 325 324 325 320 314 313 315 313 302 293 259 232 248 211 186 3 328 210 200 197 205 201 210 213 229 242 234 245 259 260
359 355 352 346 343 341 340 340 340 337 336 335 333 329 327 325 323 321 322 320 313 315 316 315 310 301 276 253 263 245 236 237 261 266 215 200 212 220 243 227 201 237 239 243 244 251 261
1 358 355 350 349 345 343 342 338 335 334 333 333 330 327 326 323 320 318 314 311 313 303 299 297 290 265 253 258 260 240 236 246 252 243 236 221 222 241 241 232 239 255 238 237 235 242
357 353 350 347 345 341 341 339 336 335 335 334 335 333 330 328 326 323 319 315 314 308 298 294 289 270 257 289 273 257 246 242 241 243 246 237 224 235 245 282 198 223 230 243 229 233 245
3 3 2 0 356 356 357 350 346 341 338 336 336 334 330 328 327 327 322 320 318 310 300 295 277 247 270 280 262 279 255 245 242 244 240 217 215 220 216 232 242 215 238 228 243 210 202
14 13 12 7 1 1 358 354 351 349 345 340 341 335 330 326 326 324 323 329 327 318 312 289 211 254 255 268 289 294 287 264 237 217 201 211 203 211 213 205 218 221 226 236 243 229 223
13 9 7 4 1 358 355 352 347 345 343 340 337 333 331 331 329 326 329 343 352 291 293 255 255 248 273 283 286 281 286 294 211 199 191 188 202 219 214 216 238 249 247 246 252 239 238
11 8 5 4 3 359 356 352 347 344 341 339 335 330 328 329 329 327 358 33 48 328 300 279 275 258 265 274 289 272 257 220 192 206 194 182 223 217 218 215 220 228 242 242 251 256 269
10 10 8 7 6 2 358 353 347 342 338 337 335 333 329 324 325 323 329 298 216 319 262 293 258 260 258 248 246 267 218 203 219 211 195 198 224 205 211 208 214 224 233 239 245 266 270
12 11 10 7 2 354 350 348 346 342 339 337 336 331 328 324 322 303 356 181 311 321 289 273 239 238 340 234 242 269 227 212 219 219 207 225 213 196 207 216 208 230 225 251 251 257 263
14 13 9 3 357 353 346 343 344 344 341 339 335 330 325 321 304 301 296 300 289 241 293 99 137 124 333 238 303 318 239 213 230 210 194 212 196 191 201 205 208 235 228 225 237 248 273
10 7 5 3 357 354 351 350 347 345 343 341 339 336 326 321 311 312 290 298 205 210 245 286 61 347 338 357 317 302 259 217 218 241 232 219 206 197 210 199 203 197 209 198 229 253 254
4 1 360 1 1 357 353 351 350 348 344 339 338 335 323 327 316 302 306 199 206 236 338 311 339 331 322 335 348 340 320 197 216 203 220 213 220 203 190 193 195 195 182 213 230 220 247
2 1 1 1 359 356 354 354 353 349 345 337 336 332 338 346 327 311 184 179 225 263 259 321 339 324 305 10 3 343 331 236 212 236 222 210 201 202 191 195 177 192 190 173 207 228 264
0 1 359 358 356 354 352 355 354 351 346 341 341 6 8 348 343 206 190 199 260 252 346 330 326 313 313 333 349 339 343 323 225 217 253 205 228 183 189 189 181 184 205 208 264 267 279
357 357 356 355 353 352 351 352 353 354 351 346 350 77 16 12 343 211 218 267 286 328 334 317 293 262 292 313 321 28 337 26 349 358 352 272 223 205 188 185 205 205 186 186 206 228 245
352 352 351 351 351 351 350 352 353 352 351 351 0 41 3 346 350 69 356 315 292 293 322 298 292 295 288 296 341 53 287 334 12 332 336 270 280 183 172 202 190 179 189 193 191 214 209
351 350 347 347 348 349 348 350 353 352 351 356 1 336 360 0 359 52 340 325 308 294 325 292 275 278 272 314 293 240 218 241 347 325 306 300 286 244 206 195 200 197 191 183 185 190 227
354 352 348 346 346 349 349 348 349 351 353 350 342 300 4 9 39 354 335 309 275 297 325 320 298 331 321 301 295 251 207 213 260 293 321 343 226 216 149 199 204 199 199 191 155 164 200
356 356 351 349 348 349 350 347 346 348 354 352 357 341 351 30 25 336 324 300 311 304 292 309 284 326 341 321 325 266 239 203 252 306 316 292 257 260 200 199 159 198 195 192 198 201 202
353 351 349 349 348 349 351 345 343 345 352 2 4 1 331 315 333 316 310 306 304 327 321 317 282 351 359 311 323 28 332 234 252 333 333 335 226 270 267 279 301 173 197 199 204 218 212
356 352 347 349 346 348 350 348 347 346 344 9 342 334 310 297 299 302 301 305 298 315 306 313 288 324 325 292 285 294 309 7 312 304 322 7 31 345 260 244 252 144 163 204 208 223 235
355 353 350 350 350 348 351 347 346 348 336 341 331 324 287 286 288 281 293 291 291 305 287 255 306 312 305 302 300 286 277 264 258 280 332 343 351 353 212 343 225 238 263 199 209 223 221
355 353 354 355 352 349 349 348 345 348 312 307 319 312 288 290 302 307 293 301 307 314 294 298 298 282 275 308 301 282 262 250 253 249 253 297 330 275 259 256 202 92 45 17 109 50 10
354 353 353 352 349 348 348 352 346 348 309 311 311 311 291 282 291 298 318 323 306 316 299 297 304 306 304 299 277 288 168 180 226 226 77 218 283 249 229 209 116 53 18 349 9 53 19
353 351 350 351 349 348 348 348 342 343 311 303 307 310 282 292 279 304 306 296 301 314 318 298 325 329 345 301 276 289 333 335 28 166 77 322 239 261 266 235 167 1 332 293 180 115 6
353 350 349 347 349 348 349 347 341 343 322 290 302 305 282 278 284 286 293 314 288 290 281 298 336 330 1 0 328 312 1 322 284 324 348 70 102 193 190 88 101 353 356 137 198 22 344
351 350 349 344 349 349 350 347 343 338 318 301 298 295 274 270 288 275 276 260 283 279 284 317 321 26 334 17 348 350 333 4 283 295 328 327 316 135 170 139 129 356 10 67 358 345 341
348 349 348 344 344 348 347 347 341 332 310 288 297 298 294 265 274 299 296 288 275 275 269 271 284 295 358 345 352 308 318 294 313 95 358 35 358 48 13 70 344 343 17 41 4 344 346